Location: *
(38.9800°N, 16.0500°E)
Time: 05:33:43
(UTC+00:00)

Cosmos 2227 Rocket - Pass Details

Date: 07 April 2020
Orbit: 837 x 846 km, 71.0° (Epoch: 27 May)

Event Time Altitude Azimuth Distance (km) Brightness Sun altitude
Exits shadow 02:58:25 22° 285° (WNW) 1,771 3.4 -17.9°
Maximum altitude 02:59:42 23° 305° (NW) 1,697 3.5 -17.7°
Drops below altitude 10° 03:04:10 10° 357° (N) 2,464 4.9 -16.9°
Sets 03:07:08 0° 12° (NNE) 3,404 5.9 -16.4°
